User: anonymous   Login
Location: Unspecified
(0.0000°N, 0.0000°E)
Time: 23:31:28
(UTC+00:00)
Language:

USA 136 - Orbit

View from above orbital plane
View from above orbital plane
View from above satellite
View from above satellite

Ground track
Ground track

The orbit data is extracted from the following two-line orbital elements,

1 25034U 97068A   18122.53556644 0.00000000  00000-0  00000-0 0    09
2 25034  63.4143 195.6882 6125731 284.4565  18.2951  2.00598000    05
Epoch (UTC): 02 May 2018 12:51:12
Eccentricity: 0.6125731
inclination: 63.4143°
perigee height: 3911 km
apogee height: 36447 km
right ascension of ascending node: 195.6882°
argument of perigee: 284.4565°
revolutions per day: 2.00598000
mean anomaly at epoch: 18.2951°
orbit number at epoch: 0

The dashed part of the orbit path shows where the satellite is in the earth's shadow,  

DLR